Regional Weather Roundup
Issued by NWS

Home | Current Version | Previous Version | Text Only | Print | Product List | Glossary On
Versions: 1 2 3 4 5 6 7 8 9 10 11 12 13 14 15 16 17 18 19 20 21 22 23 24 25 26 27 28 29 30 31 32 33 34 35 36 37 38 39 40 41 42 43 44 45 46 47 48 49 50
426
ASUS43 KDMX 281903
RWRIA

WEATHER ROUNDUP FOR IOWA
NATIONAL WEATHER SERVICE DES MOINES IA
200 PM CDT SAT MAY 28 2016

NOTE: "FAIR" INDICATES FEW OR NO CLOUDS BELOW 12,000 FEET WITH NO
SIGNIFICANT WEATHER AND/OR OBSTRUCTIONS TO VISIBILITY.

* - THESE STATIONS ARE NOT NWS STATIONS...THUS NOT UNDER NWS
QUALITY CONTROL.  THEY ALSO DO NOT REPORT WEATHER SUCH
AS PRECIPITATION OR FOG.

IAZ001>003-012>014-020>022-031>034-043>046-282000-
   NORTHWEST IOWA

CITY           SKY/WX    TMP DP  RH WIND       PRES   REMARKS
CARROLL *      MOSUNNY   73  59  60 SW15G21   29.76F
CHEROKEE *     PTSUNNY   72  61  70 SW6       29.75S
DENISON *      MOSUNNY   72  57  60 SW15G23   29.74F
LE MARS *      PTSUNNY   72  59  64 S8        29.75S
ORANGE CITY *  MOSUNNY   70  59  68 SW3       29.75S
SHELDON *      SUNNY     72  59  64 S6        29.74F
SIOUX CITY     PTSUNNY   74  61  63 S8        29.73S
SPENCER        PTSUNNY   71  58  63 W7        29.75F
STORM LAKE *     N/A     70  57  64 S13       29.76F
$$

IAZ055>058-069>071-079>083-090>094-282000-
   SOUTHWEST IOWA

CITY           SKY/WX    TMP DP  RH WIND       PRES   REMARKS
ATLANTIC *     PTSUNNY   70  59  68 SW15G22   29.79S
AUDUBON *      MOSUNNY   72  61  68 SW13      29.79S
CLARINDA *       N/A     72  61  68 MISG      29.84R
COUNCIL BLFS *   N/A     66  55  68 W13G23    29.80S
CRESTON *      PTSUNNY  N/A N/A N/A SW15      29.83R
HARLAN  *      PTSUNNY   70  59  68 SW15      29.81S
LAMONI         LGT RAIN  66  62  87 SW14      29.84S
RED OAK *      PTSUNNY   70  61  73 SW15      29.81S
SHENANDOAH *   MOSUNNY   72  63  73 SW13G23   29.83S
$$

IAZ047>049-059>061-072>074-084-282000-
   CENTRAL IOWA

CITY           SKY/WX    TMP DP  RH WIND       PRES   REMARKS
AMES           LGT RAIN  71  62  73 S9        29.77F
ANKENY *       LGT RAIN  64  64 100 S6G14     29.79S
BOONE *        PTSUNNY   73  63  68 SW9       29.77S
CHARITON *     CLOUDY    66  63  88 SW14G22   29.82R
DES MOINES     LGT RAIN  67  63  87 SW10      29.79S FOG
GRINNELL*      HVY RAIN  68  64  88 SW14      29.79F
KNOXVILLE *    CLOUDY    73  63  68 S17G25    29.78S
MARSHALLTOWN   LGT RAIN  70  62  76 SW10      29.77F
NEWTON *       CLOUDY    66  66 100 W14       29.79R FOG
PELLA *        CLOUDY    73  61  64 SW14G23   29.80
PERRY *        PTSUNNY   73  63  68 SW12      29.78F
$$

IAZ004>006-015-016-023>025-035-036-282000-
   NORTH CENTRAL IOWA

CITY           SKY/WX    TMP DP  RH WIND       PRES   REMARKS
ALGONA *       CLOUDY    70  64  83 S7        29.76F
CLARION *      CLOUDY    70  64  83 W15       29.76S
ESTHERVILLE    TSTM      65  62  90 NW9       29.76S FOG
FORT DODGE *   CLOUDY    72  59  64 SW12      29.76F
MASON CITY     MOSUNNY   74  65  73 S14G20    29.77F
FOREST CITY *  PTSUNNY   73  63  68 S10G17    29.77S
WEBSTER CITY * CLOUDY    72  64  78 S13G18    29.75S
IOWA FALLS *   PTSUNNY   73  64  73 S10       29.79F
$$

IAZ007>011-017>019-026>030-037>042-050>054-066-282000-
   NORTHEAST IOWA

CITY           SKY/WX    TMP DP  RH WIND       PRES   REMARKS
CEDAR RAPIDS   TSTM      70  67  90 S21G31    29.79F VSB 1
CHARLES CITY * MOSUNNY   72  66  83 SW9       29.79S
CLINTON *      MOSUNNY   81  65  58 S21       29.84F HX  83
DECORAH *      MOSUNNY   75  64  69 S12       29.78F
DUBUQUE        PTSUNNY   78  65  63 S15       29.82F HX  80
MONTICELLO *   MOSUNNY   79  66  65 S15G22    29.79F HX  81
OELWEIN *      MOSUNNY   75  64  69 S15       29.79F
WATERLOO       CLOUDY    75  62  64 S13       29.77F
$$

IAZ064-065-067-068-078-282000-
   EAST CENTRAL IOWA

CITY           SKY/WX    TMP DP  RH WIND       PRES   REMARKS
DAVENPORT      MOSUNNY   80  65  59 S21       29.83F HX  82
IOWA CITY      CLOUDY    77  65  66 S17       29.80F
MT. PLEASANT * MOSUNNY   81  68  65 S15G25    29.82F HX  83
MUSCATINE *    SUNNY     81  64  57 S20G29    29.80F HX  82
QUAD CITIES    MOSUNNY   83  65  54 S13G26    29.83F HX  85
$$

IAZ062-063-075>077-085>089-095>099-282000-
   SOUTHEAST IOWA

CITY           SKY/WX    TMP DP  RH WIND       PRES   REMARKS
BURLINGTON     PTSUNNY   79  67  66 S18G28    29.84S HX  81
FAIRFIELD *      N/A    N/A N/A N/A MISG        N/A
FORT MADISON * PTSUNNY   79  68  69 S13       29.84F HX  81
KEOKUK *       MOSUNNY   79  66  65 S13G22    29.83F HX  81
OSKALOOSA *      N/A     77  64  65 SW22G30   29.80S
OTTUMWA        MOSUNNY   76  62  62 S22G30    29.81R
WASHINGTON *   LGT RAIN  72 -36   1 S16G28    29.82R
$$

ABBREVIATIONS USED IN REMARKS
   TC - TEMPERATURES IN CELSIUS
  WCI - WIND CHILL INDEX
   HX - HEAT INDEX
  VSB - VISIBILITY
$$





USA.gov is the U.S. government's official web portal to all federal, state and local government web resources and services.